Location: Baix
(44.7118°N, 4.7648°E)
Time: 19:23:35
(UTC+00:00)

ADEOS II - Pass Details

Date: 07 August 2020
Orbit: 799 x 802 km, 98.5° (Epoch: 24 September)

Event Time Altitude Azimuth Distance (km) Brightness Sun altitude
Rises 00:39:24 0° 31° (NNE) 3,319 6.4 -27.8°
Reaches altitude 10° 00:42:51 10° 55° (NE) 2,382 5.1 -27.6°
Maximum altitude 00:45:46 15° 89° (E) 2,053 4.4 -27.5°
Enters shadow 00:47:26 13° 110° (ESE) 2,162 4.3 -27.4°
